| time (UTC) | temp F | wind direction | speed MPH | gust MPH | rain 1hr in | rain 24hr in | rain mn in | humidity % | barometer mb |
| 20260508050029 | 49 | 250 | 0.0 | 0.0 | 0.00 | 0.00 | 0.00 | 51 | 1010.0 |
| 20260508044521 | 49 | 250 | 0.0 | 0.0 | 0.00 | 0.00 | 0.00 | 51 | 1010.0 |
| 20260508043017 | 50 | 250 | 0.0 | 0.0 | 0.00 | 0.00 | 0.00 | 51 | 1010.0 |
| 20260508041512 | 51 | 250 | 0.0 | 0.0 | 0.00 | 0.00 | 0.00 | 50 | 1009.9 |
| 20260508040010 | 52 | 250 | 0.0 | 0.0 | 0.00 | 0.00 | 0.00 | 50 | 1009.8 |
| 20260508034504 | 52 | 250 | 0.0 | 0.0 | 0.00 | 0.00 | 0.00 | 49 | 1009.7 |
| 20260508033059 | 53 | 250 | 0.0 | 0.0 | 0.00 | 0.00 | 0.00 | 49 | 1009.5 |
| 20260508031602 | 54 | 250 | 0.0 | 0.0 | 0.00 | 0.00 | 0.00 | 48 | 1009.3 |
| 20260508030107 | 55 | 250 | 0.0 | 0.0 | 0.00 | 0.00 | 0.00 | 47 | 1009.1 |
| 20260508024546 | 58 | 250 | 0.0 | 0.0 | 0.00 | 0.00 | 0.00 | 45 | 1009.0 |
| 20260508023046 | 60 | 282 | 0.0 | 0.0 | 0.00 | 0.00 | 0.00 | 41 | 1008.9 |
| 20260508021538 | 62 | 291 | 0.0 | 0.0 | 0.00 | 0.00 | 0.00 | 37 | 1008.8 |
| 20260508020033 | 64 | 279 | 0.0 | 0.0 | 0.00 | 0.00 | 0.00 | 33 | 1008.7 |
| 20260508014533 | 66 | 283 | 0.0 | 0.0 | 0.00 | 0.00 | 0.00 | 33 | 1008.7 |
| 20260508013024 | 67 | 263 | 0.0 | 0.0 | 0.00 | 0.00 | 0.00 | 30 | 1008.7 |
| 20260508011521 | 67 | 236 | 0.0 | 0.0 | 0.00 | 0.00 | 0.00 | 30 | 1008.6 |
| 20260508010031 | 66 | 254 | 0.0 | 0.0 | 0.00 | 0.00 | 0.00 | 33 | 1008.6 |
| 20260508004518 | 65 | 292 | 0.0 | 0.0 | 0.00 | 0.00 | 0.00 | 36 | 1008.9 |
| 20260508003009 | 67 | 251 | 0.0 | 0.0 | 0.00 | 0.00 | 0.00 | 33 | 1009.2 |
| 20260508001502 | 67 | 296 | 0.0 | 0.0 | 0.00 | 0.00 | 0.00 | 35 | 1009.4 |
| 20260508000057 | 65 | 344 | 0.0 | 0.0 | 0.00 | 0.00 | 0.00 | 32 | 1009.8 |
| 20260507234553 | 65 | 296 | 0.0 | 0.0 | 0.00 | 0.00 | 0.00 | 34 | 1010.0 |
| 20260507233049 | 64 | 269 | 0.0 | 0.0 | 0.00 | 0.00 | 0.00 | 33 | 1010.2 |
| 20260507231552 | 64 | 255 | 0.0 | 0.0 | 0.00 | 0.00 | 0.00 | 35 | 1010.3 |
| 20260507230040 | 65 | 270 | 0.0 | 0.0 | 0.00 | 0.00 | 0.00 | 32 | 1010.3 |
| 20260507224550 | 65 | 239 | 0.0 | 0.0 | 0.00 | 0.00 | 0.00 | 33 | 1010.6 |
| 20260507223030 | 65 | 295 | 0.0 | 0.0 | 0.00 | 0.00 | 0.00 | 31 | 1010.9 |
| 20260507221534 | 67 | 284 | 0.0 | 0.0 | 0.00 | 0.00 | 0.00 | 30 | 1010.9 |
| 20260507220022 | 67 | 290 | 0.0 | 0.0 | 0.00 | 0.00 | 0.00 | 29 | 1010.9 |
| 20260507214520 | 67 | 293 | 0.0 | 0.0 | 0.00 | 0.00 | 0.00 | 29 | 1011.0 |
| 20260507213025 | 67 | 287 | 0.0 | 0.0 | 0.00 | 0.00 | 0.00 | 33 | 1011.3 |
| 20260507211508 | 67 | 343 | 0.0 | 0.0 | 0.00 | 0.00 | 0.00 | 32 | 1011.5 |
| 20260507210012 | 66 | 246 | 0.0 | 0.0 | 0.00 | 0.00 | 0.00 | 33 | 1011.6 |
| 20260507204609 | 65 | 288 | 0.0 | 0.0 | 0.00 | 0.00 | 0.00 | 32 | 1011.8 |
| 20260507203058 | 65 | 262 | 0.0 | 0.0 | 0.00 | 0.00 | 0.00 | 33 | 1012.2 |
| 20260507201551 | 66 | 258 | 0.0 | 0.0 | 0.00 | 0.00 | 0.00 | 29 | 1012.1 |
| 20260507194542 | 67 | 259 | 0.0 | 0.0 | 0.00 | 0.00 | 0.00 | 34 | 1012.2 |
| 20260507193102 | 67 | 259 | 0.0 | 0.0 | 0.00 | 0.00 | 0.00 | 29 | 1012.4 |
| 20260507191533 | 66 | 269 | 0.0 | 0.0 | 0.00 | 0.00 | 0.00 | 31 | 1012.5 |
| 20260507190034 | 65 | 294 | 0.0 | 0.0 | 0.00 | 0.00 | 0.00 | 31 | 1012.8 |
| 20260507184524 | 63 | 277 | 0.0 | 0.0 | 0.00 | 0.00 | 0.00 | 33 | 1013.0 |
| 20260507183035 | 64 | 245 | 0.0 | 0.0 | 0.00 | 0.00 | 0.00 | 32 | 1013.0 |
| 20260507181515 | 64 | 329 | 0.0 | 0.0 | 0.00 | 0.00 | 0.00 | 29 | 1013.2 |
| 20260507180010 | 64 | 119 | 0.0 | 0.0 | 0.00 | 0.00 | 0.00 | 30 | 1013.2 |
| 20260507174506 | 64 | 138 | 0.0 | 0.0 | 0.00 | 0.00 | 0.00 | 31 | 1013.6 |
| 20260507173008 | 63 | 168 | 0.0 | 0.0 | 0.00 | 0.00 | 0.00 | 36 | 1013.7 |
| 20260507171559 | 62 | 173 | 0.0 | 0.0 | 0.00 | 0.00 | 0.00 | 34 | 1014.0 |
| 20260507170053 | 61 | 190 | 0.0 | 0.0 | 0.00 | 0.00 | 0.00 | 37 | 1014.3 |
| 20260507164553 | 59 | 168 | 0.0 | 0.0 | 0.00 | 0.00 | 0.00 | 40 | 1014.6 |
| 20260507163041 | 57 | 206 | 0.0 | 0.0 | 0.00 | 0.00 | 0.00 | 39 | 1014.9 |
| 20260507161539 | 58 | 173 | 0.0 | 0.0 | 0.00 | 0.00 | 0.00 | 40 | 1015.1 |
| 20260507160054 | 56 | 184 | 0.0 | 0.0 | 0.00 | 0.00 | 0.00 | 39 | 1015.4 |
| 20260507154527 | 54 | 200 | 0.0 | 0.0 | 0.00 | 0.00 | 0.00 | 40 | 1015.6 |
| 20260507153023 | 55 | 169 | 0.0 | 0.0 | 0.00 | 0.00 | 0.00 | 39 | 1015.8 |
| 20260507151518 | 53 | 175 | 0.0 | 0.0 | 0.00 | 0.00 | 0.00 | 42 | 1016.2 |
| 20260507150013 | 50 | 115 | 0.0 | 0.0 | 0.00 | 0.00 | 0.00 | 45 | 1016.5 |
| 20260507144523 | 48 | 131 | 0.0 | 0.0 | 0.00 | 0.01 | 0.00 | 44 | 1016.7 |
| 20260507143006 | 46 | 142 | 0.0 | 0.0 | 0.00 | 0.01 | 0.00 | 35 | 1017.1 |
| 20260507141502 | 40 | 360 | 0.0 | 0.0 | 0.00 | 0.01 | 0.00 | 1 | 1017.3 |
| 20260507134601 | 39 | 193 | 0.0 | 0.0 | 0.00 | 0.01 | 0.00 | 1 | 1017.5 |
| 20260507133049 | 38 | 234 | 0.0 | 0.0 | 0.00 | 0.01 | 0.00 | 1 | 1017.6 |
| 20260507131543 | 37 | 233 | 0.0 | 0.0 | 0.00 | 0.01 | 0.00 | 1 | 1017.5 |
| 20260507130042 | 38 | 233 | 0.0 | 0.0 | 0.00 | 0.01 | 0.00 | 1 | 1017.7 |
| 20260507124536 | 38 | 233 | 0.0 | 0.0 | 0.00 | 0.01 | 0.00 | 11 | 1017.6 |
| 20260507123039 | 39 | 217 | 0.0 | 0.0 | 0.00 | 0.01 | 0.00 | 24 | 1017.5 |
| 20260507121526 | 40 | 209 | 0.0 | 0.0 | 0.00 | 0.01 | 0.00 | 27 | 1017.3 |
| 20260507120021 | 41 | 215 | 0.0 | 0.0 | 0.00 | 0.01 | 0.00 | 31 | 1017.0 |
| 20260507114516 | 40 | 187 | 0.0 | 0.0 | 0.00 | 0.01 | 0.00 | 31 | 1017.2 |
| 20260507113015 | 42 | 150 | 0.0 | 0.0 | 0.00 | 0.01 | 0.00 | 39 | 1017.2 |
| 20260507111510 | 42 | 158 | 0.0 | 0.0 | 0.00 | 0.01 | 0.00 | 41 | 1017.1 |
| 20260507110005 | 42 | 148 | 0.0 | 0.0 | 0.00 | 0.01 | 0.00 | 41 | 1017.3 |
| 20260507104602 | 43 | 132 | 0.0 | 0.0 | 0.00 | 0.01 | 0.00 | 42 | 1017.4 |
| 20260507103055 | 42 | 171 | 0.0 | 0.0 | 0.00 | 0.01 | 0.00 | 39 | 1017.7 |
| 20260507101602 | 43 | 106 | 0.0 | 0.0 | 0.00 | 0.01 | 0.00 | 38 | 1017.8 |
| 20260507100046 | 42 | 142 | 0.0 | 0.0 | 0.00 | 0.01 | 0.00 | 36 | 1017.8 |
| 20260507094543 | 42 | 132 | 0.0 | 0.0 | 0.00 | 0.01 | 0.00 | 34 | 1018.1 |
| 20260507093044 | 42 | 174 | 0.0 | 0.0 | 0.00 | 0.01 | 0.00 | 33 | 1018.4 |
| 20260507091537 | 42 | 142 | 0.0 | 0.0 | 0.00 | 0.01 | 0.00 | 30 | 1018.3 |
| 20260507090028 | 42 | 142 | 0.0 | 0.0 | 0.00 | 0.01 | 0.00 | 29 | 1018.6 |
| 20260507084523 | 42 | 171 | 0.0 | 0.0 | 0.00 | 0.02 | 0.00 | 24 | 1018.7 |
| 20260507083026 | 41 | 5 | 0.0 | 0.0 | 0.00 | 0.02 | 0.00 | 22 | 1018.9 |
| 20260507081527 | 43 | 127 | 0.0 | 0.0 | 0.00 | 0.02 | 0.00 | 29 | 1018.8 |
| 20260507080013 | 42 | 146 | 0.0 | 0.0 | 0.00 | 0.02 | 0.00 | 27 | 1018.9 |
| 20260507074505 | 42 | 161 | 0.0 | 0.0 | 0.00 | 0.05 | 0.00 | 24 | 1019.1 |
| 20260507073002 | 41 | 148 | 0.0 | 0.0 | 0.00 | 0.05 | 0.00 | 9 | 1019.3 |
| 20260507071606 | 39 | 207 | 0.0 | 0.0 | 0.00 | 0.05 | 0.00 | 3 | 1019.3 |
| 20260507070054 | 40 | 207 | 0.0 | 0.0 | 0.00 | 0.05 | 0.00 | 3 | 1019.2 |
| 20260507064605 | 38 | 176 | 0.0 | 0.0 | 0.00 | 0.05 | 0.00 | 7 | 1019.0 |
| 20260507063049 | 39 | 176 | 0.0 | 0.0 | 0.00 | 0.05 | 0.00 | 34 | 1019.0 |
| 20260507060038 | 40 | 176 | 0.0 | 0.0 | 0.00 | 0.05 | 0.00 | 40 | 1018.8 |
| 20260507054539 | 41 | 176 | 0.0 | 0.0 | 0.00 | 0.08 | 0.05 | 46 | 1018.8 |
| 20260507053030 | 41 | 176 | 0.0 | 0.0 | 0.00 | 0.08 | 0.05 | 44 | 1018.8 |
| 20260507051525 | 42 | 176 | 0.0 | 0.0 | 0.00 | 0.08 | 0.05 | 47 | 1018.5 |